This is the latest recevied weather packets stored in our database for station/object OK2ZAW-21. If no packets are shown the sender has not sent any weather packets the latest 10 day(s).
| Time | Temp. | Humidity | Pressure | Rain* | Wind** | Luminosity | Snow |
|---|---|---|---|---|---|---|---|
| 1778088637 | 17.78° C | 61% | 1006.5 hPa | - | - | 298 W/m² | - |
| 1778088631 | 17.78° C | 61% | 1006.5 hPa | - | - | 298 W/m² | - |
| 1778088323 | 17.78° C | 60% | 1006.5 hPa | - | - | 299 W/m² | - |
| 1778088021 | 17.78° C | 59% | 1006.6 hPa | - | - | 301 W/m² | - |
| 1778088014 | 17.78° C | 59% | 1006.6 hPa | - | - | 301 W/m² | - |
| 1778087706 | 17.78° C | 58% | 1006.6 hPa | - | - | 302 W/m² | - |
| 1778087404 | 18.33° C | 57% | 1006.6 hPa | - | - | 303 W/m² | - |
| 1778087397 | 18.33° C | 57% | 1006.6 hPa | - | - | 303 W/m² | - |
| 1778087088 | 18.33° C | 56% | 1006.5 hPa | - | - | 303 W/m² | - |
| 1778086780 | 18.89° C | 55% | 1006.5 hPa | - | - | 304 W/m² | - |
| 1778086471 | 19.44° C | 53% | 1006.7 hPa | - | - | 304 W/m² | - |
| 1778086162 | 19.44° C | 52% | 1006.7 hPa | - | - | 305 W/m² | - |
| 1778085853 | 19.44° C | 51% | 1006.8 hPa | - | - | 305 W/m² | - |
| 1778085544 | 19.44° C | 51% | 1006.7 hPa | - | - | 305 W/m² | - |
| 1778084927 | 20° C | 49% | 1006.7 hPa | - | - | 304 W/m² | - |
| 1778084624 | 20° C | 49% | 1006.8 hPa | - | - | 303 W/m² | - |
| 1778084618 | 20° C | 49% | 1006.8 hPa | - | - | 303 W/m² | - |
| 1778084315 | 20° C | 49% | 1006.7 hPa | - | - | 302 W/m² | - |
| 1778084309 | 20° C | 49% | 1006.7 hPa | - | - | 302 W/m² | - |
| 1778084000 | 20.56° C | 49% | 1006.8 hPa | - | - | 301 W/m² | - |
| 1778083383 | 20° C | 49% | 1007 hPa | - | - | 298 W/m² | - |
| 1778083080 | 20° C | 51% | 1007 hPa | - | - | 296 W/m² | - |
| 1778083074 | 20° C | 51% | 1007 hPa | - | - | 296 W/m² | - |
| 1778082765 | 20° C | 51% | 1007.2 hPa | - | - | 295 W/m² | - |
| 1778082456 | 20° C | 50% | 1007.3 hPa | - | - | 293 W/m² | - |
* Rain since midnight (hover to see other rain measurements)
** Current wind speed in m/s (hover to see current wind gust speed)